Voltar ao catálogo

STARLINK-34723

AtivoComunicaçõesSSO
NORAD 64842·PAYLOAD·🇺🇸 United States

Lançado Jul 19, 2025 de Vandenberg Space Force Base

Loading…

Próximas Passagens (próximas 24 horas)

TLE

AtualizadoSource: CelesTrak SupGP

Época: Sep 15, 2026, 03:29 UTC

1 64842C 25152A   26258.14562500 -.00027789  00000+0 -86243-3 0  2583
2 64842  97.2848 108.8043 0001709  91.6972 327.2228 15.33460685    17

Acompanhe STARLINK-34723 em tempo real com AllMySat

Download on the App Store